Weather History for KSMQ - May, 2014

Change the Weather History Date:

Friday, May 30, 2014

  Actual Average Record
Temperature  
Mean Temperature 66 °F -  
Max Temperature 79 °F 75 °F 94 °F (1931)
Min Temperature 53 °F 52 °F 35 °F (1949)
Growing Degree Days 16 (Base 50)    
Moisture  
Dew Point 48 °F    
Average Humidity 59    
Maximum Humidity 86    
Minimum Humidity 32    
Precipitation  
Precipitation 0.00 in - - ()
Sea Level Pressure  
Sea Level Pressure 30.06 in    
Wind  
Wind Speed 2 mph (North)    
Max Wind Speed 9 mph    
Max Gust Speed 17 mph    
Visibility 10 miles    
Events      
Averages and records for this station are not official NWS values.
T = Trace of Precipitation, MM = Missing Value Source: NWS Daily Summary

Daily Weather History Graph

Daily Weather History Graph

Search for Another Location

Airport or City:

Trip Planner

Search our weather history database for the weather conditions in past years. The results will help you decide how hot, cold, wet, or windy it might be!

Date:

Astronomy

May. 30, 2014 Rise Set
Actual Time 5:30 AM EDT 8:21 PM EDT
Civil Twilight 4:58 AM EDT 8:54 PM EDT
Nautical Twilight 4:17 AM EDT 9:35 PM EDT
Astronomical Twilight 3:30 AM EDT 10:22 PM EDT
Moon 7:13 AM EDT (5/30) 9:56 PM EDT (5/30)
Length of Visible Light 15h 55m
Length of Day
14h 50m
Waxing Crescent, 4% of the Moon is Illuminated
May 30
Waxing Crescent
Jun 5
First Quarter
Jun 13
Full
Jun 19
Last Quarter
Jun 27
New

Hourly Weather History & Observations

Time (EDT) Temp. Dew Point Humidity Pressure Visibility Wind Dir Wind Speed Gust Speed Precip Events Conditions
12:53 AM 57.0 °F 44.1 °F 62% 30.14 in 10.0 mi Calm Calm - N/A   Overcast
1:53 AM 55.0 °F 46.9 °F 74% 30.12 in 10.0 mi Calm Calm - N/A   Overcast
2:53 AM 55.0 °F 46.9 °F 74% 30.11 in 10.0 mi Calm Calm - N/A   Overcast
3:46 AM 55.0 °F 48.0 °F 77% 30.11 in 10.0 mi Calm Calm - N/A   Overcast
3:53 AM 55.0 °F 48.0 °F 77% 30.11 in 10.0 mi Calm Calm - N/A   Overcast
4:30 AM 55.0 °F 48.0 °F 77% 30.10 in 10.0 mi Calm Calm - N/A   Overcast
4:53 AM 53.6 °F 48.2 °F 82% 30.10 in 10.0 mi Calm Calm - N/A   Overcast
5:53 AM 53.1 °F 48.0 °F 83% 30.09 in 10.0 mi Calm Calm - N/A   Overcast
6:53 AM 54.0 °F 50.0 °F 86% 30.10 in 10.0 mi Calm Calm - N/A   Clear
7:53 AM 59.0 °F 50.0 °F 72% 30.11 in 10.0 mi Calm Calm - N/A   Mostly Cloudy
8:53 AM 62.1 °F 50.0 °F 65% 30.10 in 10.0 mi North 5.8 mph - N/A   Clear
9:53 AM 66.0 °F 51.1 °F 59% 30.09 in 10.0 mi Calm Calm - N/A   Clear
10:53 AM 69.1 °F 52.0 °F 54% 30.08 in 10.0 mi Calm Calm - N/A   Partly Cloudy
11:53 AM 70.0 °F 52.0 °F 53% 30.06 in 10.0 mi NW 6.9 mph - N/A   Mostly Cloudy
12:53 PM 73.9 °F 46.9 °F 38% 30.05 in 10.0 mi NNW 9.2 mph - N/A   Mostly Cloudy
1:53 PM 75.2 °F 46.4 °F 36% 30.04 in 10.0 mi North 9.2 mph - N/A   Mostly Cloudy
2:53 PM 77.0 °F 46.0 °F 33% 30.02 in 10.0 mi Variable 4.6 mph - N/A   Mostly Cloudy
3:53 PM 78.1 °F 48.0 °F 35% 30.01 in 10.0 mi Variable 3.5 mph - N/A   Partly Cloudy
4:53 PM 75.2 °F 46.4 °F 36% 29.99 in 10.0 mi Variable 5.8 mph - N/A   Mostly Cloudy
5:53 PM 77.0 °F 45.0 °F 32% 29.98 in 10.0 mi WNW 5.8 mph - N/A   Scattered Clouds
6:53 PM 77.0 °F 48.0 °F 36% 29.97 in 10.0 mi Calm Calm - N/A   Scattered Clouds
7:53 PM 72.0 °F 48.9 °F 44% 29.98 in 10.0 mi Calm Calm - N/A   Scattered Clouds
8:53 PM 70.0 °F 48.0 °F 46% 30.01 in 10.0 mi NE 9.2 mph 17.3 mph N/A   Partly Cloudy
9:53 PM 66.0 °F 52.0 °F 60% 30.05 in 10.0 mi NNE 6.9 mph - N/A   Mostly Cloudy
10:53 PM 62.1 °F 52.0 °F 70% 30.06 in 10.0 mi Calm Calm - N/A   Clear
11:53 PM 55.9 °F 50.0 °F 80% 30.07 in 10.0 mi Calm Calm - N/A   Clear